Terug naar catalogus

STARLINK-36443

ActiefCommunicatieVLEO
NORAD 67431·PAYLOAD·🇺🇸 United States

Gelanceerd Jan 12, 2026 vanaf Cape Canaveral Space Force Station

Loading…

Volgende Passages (komende 24 uur)

TLE

VersSource: CelesTrak SupGP

Epoch: Sep 15, 2026, 04:20 UTC

1 67431C 26005AD  26258.18104167 -.00023644  00000+0 -85661-3 0  2582
2 67431  42.9995 247.5911 0001191 268.0858 302.1408 15.27581632    18

Volg STARLINK-36443 in realtime met AllMySat

Download on the App Store